Date String (YYYY-MM-DD hh:mm:ss) UTC,Instrument flags,absolute air pressure of the measurement (hPa),sample flow rate (lpm),inlet stack bypass flow (lpm),air temperature of the measurement (°C),ambient temperature measured by the external sensor (°C),aerosol sample conditioner tube jacket temperature (°C),OPC LED temperature (°C),internal box temperature (°C),relative humidity of the measurement (%),span deviation,mass concentration of particles derived from Lorenz-Mie calculation of OPC scattering (μg/m³),mass concentration of particles derived from Lorenz-Mie calculation of OPC scattering (μg/m³),mass concentration of particles derived from Lorenz-Mie calculation of OPC scattering (μg/m³)
DateTimeUTC,F1_M11,P_M11,Q1_M11,Q2_M11,T1_M11,T2_M11,T3_M11,T4_M11,T5_M11,U1_M11,ZSPAN_M11,X0_M11,X2_M11,X1_M11
2024-05-29 17:00:00,SystemResetWarning,0829.4,5.01,000.00,031.1,030.3,000.0,039.3,032.7,021.4,0000.0,0018.68,0005.94,0004.39
2024-05-29 17:01:00,SystemResetWarning,0829.3,5.00,000.00,031.1,030.4,000.0,039.3,032.7,021.2,0000.0,0019.58,0005.97,0004.39
2024-05-29 17:02:00,SystemResetWarning,0829.3,4.99,000.00,031.1,030.4,000.0,039.3,032.7,021.5,0000.0,0019.65,0005.94,0004.36
2024-05-29 17:03:00,SystemResetWarning,0829.3,4.99,000.00,031.1,030.4,000.0,039.3,032.8,021.5,0000.0,0018.97,0005.93,0004.33
2024-05-29 17:04:00,SystemResetWarning,0829.3,4.99,000.00,031.1,030.4,000.0,039.3,032.7,021.1,0000.0,0019.57,0005.91,0004.31
2024-05-29 17:05:00,SystemResetWarning,0829.3,5.01,000.00,031.1,030.5,000.0,039.4,032.8,020.8,0000.0,0019.67,0005.92,0004.29
2024-05-29 17:06:00,SystemResetWarning,0829.4,5.01,000.00,031.1,030.5,000.0,039.4,032.8,019.7,0000.0,0020.63,0005.89,0004.25
2024-05-29 17:07:00,SystemResetWarning,0829.3,5.00,000.00,031.1,030.1,000.0,039.4,032.6,020.0,0000.0,0020.72,0005.82,0004.21
2024-05-29 17:08:00,SystemResetWarning,0829.3,4.98,000.00,030.8,028.1,000.0,039.5,031.7,020.8,0000.0,0020.06,0005.71,0004.17
2024-05-29 17:09:00,SystemResetWarning,0829.2,5.02,000.00,030.5,027.4,000.0,039.4,031.2,021.3,0000.0,0019.46,0005.69,0004.15
2024-05-29 17:10:00,SystemResetWarning,0829.2,5.00,000.00,030.4,027.8,000.0,039.3,031.3,021.5,0000.0,0018.81,0005.62,0004.14
2024-05-29 17:11:00,SystemResetWarning,0829.3,5.00,000.00,030.3,028.1,000.0,039.2,031.5,021.8,0000.0,0017.61,0005.56,0004.14
2024-05-29 17:12:00,SystemResetWarning,0829.3,5.00,000.00,030.4,028.5,000.0,039.1,031.7,021.6,0000.0,0016.28,0005.57,0004.11
2024-05-29 17:13:00,SystemResetWarning,0829.3,5.00,000.00,030.4,028.7,000.0,039.0,031.8,021.3,0000.0,0016.08,0005.55,0004.10
2024-05-29 17:14:00,SystemResetWarning,0829.3,5.00,000.00,030.4,029.0,000.0,039.0,031.9,021.3,0000.0,0017.23,0005.50,0004.08
2024-05-29 17:15:00,SystemResetWarning,0829.2,5.00,000.00,030.4,029.2,000.0,038.9,032.0,021.9,0000.0,0017.30,0005.44,0004.07
2024-05-29 17:16:00,SystemResetWarning,0829.2,5.00,000.00,030.4,029.3,000.0,038.9,032.0,021.1,0000.0,0017.91,0005.38,0004.05
2024-05-29 17:17:00,SystemResetWarning,0829.2,4.99,000.00,030.4,029.5,000.0,038.9,032.1,021.2,0000.0,0017.20,0005.37,0004.04
2024-05-29 17:18:00,SystemResetWarning,0829.2,5.00,000.00,030.5,029.6,000.0,038.9,032.1,021.2,0000.0,0016.41,0005.40,0004.06
2024-05-29 17:19:00,SystemResetWarning,0829.2,5.00,000.00,030.5,029.7,000.0,038.9,032.2,020.9,0000.0,0016.84,0005.50,0004.08
2024-05-29 17:20:00,SystemResetWarning,0829.2,5.00,000.00,030.5,029.8,000.0,038.9,032.2,020.6,0000.0,0017.61,0005.53,0004.07
2024-05-29 17:21:00,SystemResetWarning,0829.2,5.01,000.00,030.6,029.8,000.0,038.9,032.2,020.3,0000.0,0018.73,0005.57,0004.06
2024-05-29 17:22:00,SystemResetWarning,0829.2,5.00,000.00,030.6,029.9,000.0,038.9,032.3,020.4,0000.0,0019.05,0005.54,0004.03
2024-05-29 17:23:00,SystemResetWarning,0829.2,5.00,000.00,030.7,030.0,000.0,038.9,032.3,020.3,0000.0,0019.21,0005.43,0004.01
2024-05-29 17:24:00,SystemResetWarning,0829.1,5.01,000.00,030.7,030.0,000.0,038.9,032.4,020.4,0000.0,0019.86,0005.36,0003.99
2024-05-29 17:25:00,SystemResetWarning,0829.1,4.99,000.00,030.7,029.4,000.0,039.0,032.0,020.3,0000.0,0019.95,0005.35,0003.97
2024-05-29 17:26:00,SystemResetWarning,0829.0,5.00,000.00,030.3,027.1,000.0,039.0,030.9,020.5,0000.0,0018.94,0005.31,0003.95
2024-05-29 17:27:00,SystemResetWarning,0829.0,5.02,000.00,029.9,026.1,000.0,039.0,030.4,020.9,0000.0,0017.88,0005.23,0003.93
2024-05-29 17:28:00,SystemResetWarning,0828.9,4.99,000.00,029.7,026.5,000.0,038.8,030.5,021.0,0000.0,0017.17,0005.22,0003.92
2024-05-29 17:29:00,SystemResetWarning,0828.9,4.99,000.00,029.7,027.0,000.0,038.7,030.7,021.1,0000.0,0017.48,0005.15,0003.89
2024-05-29 17:30:00,SystemResetWarning,0828.9,5.01,000.00,029.7,027.4,000.0,038.6,030.9,020.9,0000.0,0017.48,0005.05,0003.85
2024-05-29 17:31:00,SystemResetWarning,0828.9,5.01,000.00,029.7,027.8,000.0,038.5,031.1,020.6,0000.0,0017.91,0005.00,0003.84
2024-05-29 17:32:00,SystemResetWarning,0828.9,5.01,000.00,029.7,028.1,000.0,038.4,031.2,020.8,0000.0,0015.89,0004.92,0003.81
2024-05-29 17:33:00,SystemResetWarning,0828.9,4.99,000.00,029.8,028.4,000.0,038.4,031.3,020.7,0000.0,0016.28,0004.87,0003.81
2024-05-29 17:34:00,SystemResetWarning,0828.9,5.00,000.00,029.8,028.6,000.0,038.4,031.4,020.7,0000.0,0015.32,0004.86,0003.79
2024-05-29 17:35:00,SystemResetWarning,0828.9,5.01,000.00,029.8,028.8,000.0,038.3,031.5,021.1,0000.0,0014.71,0004.89,0003.79
2024-05-29 17:36:00,SystemResetWarning,0829.0,5.01,000.00,029.9,029.0,000.0,038.3,031.6,020.6,0000.0,0013.72,0004.95,0003.79
2024-05-29 17:37:00,SystemResetWarning,0829.0,4.99,000.00,029.9,029.1,000.0,038.3,031.6,020.6,0000.0,0013.25,0004.96,0003.79
2024-05-29 17:38:00,SystemResetWarning,0829.0,4.98,000.00,030.0,029.2,000.0,038.3,031.7,020.8,0000.0,0014.44,0004.98,0003.79
2024-05-29 17:39:00,SystemResetWarning,0829.0,5.00,000.00,030.0,029.3,000.0,038.4,031.8,020.5,0000.0,0015.43,0004.99,0003.78
2024-05-29 17:40:00,SystemResetWarning,0828.9,5.01,000.00,030.1,029.4,000.0,038.4,031.8,020.2,0000.0,0016.43,0004.96,0003.76
2024-05-29 17:41:00,SystemResetWarning,0828.9,5.00,000.00,030.1,029.5,000.0,038.4,031.9,019.9,0000.0,0017.25,0004.98,0003.76
2024-05-29 17:42:00,SystemResetWarning,0828.9,4.99,000.00,030.2,029.6,000.0,038.4,031.9,020.0,0000.0,0016.46,0004.96,0003.75
2024-05-29 17:43:00,SystemResetWarning,0828.9,5.00,000.00,030.2,029.7,000.0,038.4,032.0,019.8,0000.0,0016.08,0004.91,0003.75
2024-05-29 17:44:00,SystemResetWarning,0828.9,5.00,000.00,030.3,029.7,000.0,038.5,032.0,020.2,0000.0,0016.17,0004.89,0003.75
2024-05-29 17:45:00,SystemResetWarning,0828.9,5.01,000.00,030.3,029.8,000.0,038.5,032.1,019.9,0000.0,0016.22,0004.88,0003.76
2024-05-29 17:46:00,SystemResetWarning,0828.9,5.00,000.00,030.4,029.8,000.0,038.5,032.1,019.4,0000.0,0015.82,0004.81,0003.76
2024-05-29 17:47:00,SystemResetWarning,0828.9,5.01,000.00,030.4,029.9,000.0,038.5,032.1,020.6,0000.0,0016.07,0004.76,0003.75
2024-05-29 17:48:00,SystemResetWarning,0828.8,5.00,000.00,030.4,029.9,000.0,038.6,032.2,020.6,0000.0,0017.23,0004.74,0003.74
2024-05-29 17:49:00,SystemResetWarning,0828.8,5.00,000.00,030.4,029.2,000.0,038.6,031.8,020.2,0000.0,0016.47,0004.76,0003.75
2024-05-29 17:50:00,SystemResetWarning,0828.7,5.00,000.00,030.1,027.2,000.0,038.7,030.9,020.5,0000.0,0016.13,0004.78,0003.76
2024-05-29 17:51:00,SystemResetWarning,0828.7,5.02,000.00,029.8,027.1,000.0,038.7,030.8,021.8,0000.0,0015.66,0004.78,0003.77
2024-05-29 17:52:00,SystemResetWarning,0828.7,4.98,000.00,029.8,027.5,000.0,038.5,030.9,020.9,0000.0,0015.02,0004.79,0003.78
2024-05-29 17:53:00,SystemResetWarning,0828.7,5.00,000.00,029.8,027.8,000.0,038.4,031.1,020.2,0000.0,0015.34,0004.80,0003.78
2024-05-29 17:54:00,SystemResetWarning,0828.7,5.01,000.00,029.8,028.2,000.0,038.4,031.3,021.8,0000.0,0016.18,0004.84,0003.78
2024-05-29 17:55:00,SystemResetWarning,0828.7,5.02,000.00,029.8,028.4,000.0,038.3,031.4,020.4,0000.0,0016.68,0004.90,0003.78
2024-05-29 17:56:00,SystemResetWarning,0828.7,5.00,000.00,029.9,028.7,000.0,038.3,031.5,020.4,0000.0,0016.74,0004.96,0003.78
2024-05-29 17:57:00,SystemResetWarning,0828.6,4.99,000.00,029.9,028.9,000.0,038.3,031.6,020.0,0000.0,0017.56,0005.07,0003.79
2024-05-29 17:58:00,SystemResetWarning,0828.7,5.00,000.00,029.9,029.1,000.0,038.3,031.6,018.0,0000.0,0017.51,0005.06,0003.80
2024-05-29 17:59:00,SystemResetWarning,0828.6,5.00,000.00,030.0,029.2,000.0,038.3,031.7,020.5,0000.0,0017.19,0005.05,0003.78
